TimeCST,TemperatureF,Dew PointF,Humidity,Sea Level PressureIn,VisibilityMPH,Wind Direction,Wind SpeedMPH,Gust SpeedMPH,PrecipitationIn,Events,Conditions,WindDirDegrees,DateUTC
12:11 AM,19.4,15.8,86,30.03,7.0,NNW,25.3,31.1,N/A,,Overcast,330,2012-12-31 06:11:00
12:32 AM,19.4,15.8,86,30.03,7.0,NNW,20.7,25.3,N/A,,Overcast,330,2012-12-31 06:32:00
12:53 AM,21.2,17.6,86,30.03,10.0,NNW,21.9,28.8,N/A,,Overcast,330,2012-12-31 06:53:00
1:13 AM,21.2,17.6,86,30.04,10.0,NW,21.9,28.8,N/A,,Overcast,320,2012-12-31 07:13:00
1:31 AM,21.2,15.8,80,30.04,10.0,NNW,23.0,31.1,N/A,,Overcast,330,2012-12-31 07:31:00
1:53 AM,21.2,15.8,80,30.04,4.0,NW,29.9,34.5,N/A,,Haze,320,2012-12-31 07:53:00
2:13 AM,19.4,14.0,80,30.06,3.0,NNW,31.1,39.1,N/A,,Haze,330,2012-12-31 08:13:00
2:33 AM,19.4,14.0,80,30.08,4.0,NNW,25.3,33.4,N/A,,Haze,330,2012-12-31 08:33:00
2:53 AM,19.4,14.0,80,30.10,4.0,NNW,17.3,29.9,N/A,,Overcast,330,2012-12-31 08:53:00
3:13 AM,19.4,14.0,80,30.10,5.0,NNW,21.9,31.1,N/A,,Haze,330,2012-12-31 09:13:00
3:33 AM,19.4,14.0,80,30.09,7.0,NNW,19.6,29.9,N/A,,Overcast,330,2012-12-31 09:33:00
3:53 AM,19.4,14.0,80,30.11,7.0,NNW,19.6,31.1,N/A,,Overcast,330,2012-12-31 09:53:00
4:13 AM,19.4,14.0,80,30.10,10.0,NNW,17.3,-,N/A,,Scattered Clouds,330,2012-12-31 10:13:00
4:33 AM,17.6,12.2,79,30.10,10.0,NNW,15.0,-,N/A,,Clear,330,2012-12-31 10:33:00
4:53 AM,17.6,12.2,79,30.10,10.0,NNW,15.0,-,N/A,,Clear,330,2012-12-31 10:53:00
5:13 AM,17.6,12.2,79,30.11,10.0,NNW,16.1,-,N/A,,Clear,330,2012-12-31 11:13:00
5:33 AM,17.6,10.4,73,30.11,10.0,NNW,16.1,24.2,N/A,,Clear,330,2012-12-31 11:33:00
5:53 AM,15.8,10.4,79,30.11,10.0,NNW,18.4,-,N/A,,Clear,330,2012-12-31 11:53:00
6:13 AM,14.0,10.4,86,30.12,10.0,NNW,13.8,-,N/A,,Clear,330,2012-12-31 12:13:00
6:33 AM,14.0,10.4,86,30.12,10.0,NNW,11.5,-,N/A,,Clear,330,2012-12-31 12:33:00
6:53 AM,14.0,10.4,86,30.12,10.0,NNW,10.4,-,N/A,,Clear,330,2012-12-31 12:53:00
7:13 AM,14.0,10.4,86,30.13,10.0,NNW,10.4,-,N/A,,Clear,330,2012-12-31 13:13:00
7:33 AM,14.0,8.6,79,30.13,10.0,NNW,9.2,-,N/A,,Clear,330,2012-12-31 13:33:00
7:53 AM,14.0,8.6,79,30.14,10.0,NNW,8.1,-,N/A,,Clear,330,2012-12-31 13:53:00
8:13 AM,12.2,8.6,85,30.15,10.0,NNW,6.9,-,N/A,,Clear,340,2012-12-31 14:13:00
8:33 AM,12.2,8.6,85,30.14,10.0,North,9.2,-,N/A,,Clear,350,2012-12-31 14:33:00
8:53 AM,12.2,6.8,79,30.15,10.0,NNW,9.2,-,N/A,,Clear,340,2012-12-31 14:53:00
9:13 AM,12.2,5.0,73,30.16,10.0,North,8.1,-,N/A,,Scattered Clouds,350,2012-12-31 15:13:00
9:33 AM,12.2,5.0,73,30.15,10.0,North,9.2,17.3,N/A,,Mostly Cloudy,350,2012-12-31 15:33:00
9:52 AM,12.2,5.0,73,30.17,10.0,NNW,10.4,18.4,N/A,,Scattered Clouds,340,2012-12-31 15:52:00
10:13 AM,12.2,5.0,73,30.17,10.0,NNW,12.7,20.7,N/A,,Scattered Clouds,340,2012-12-31 16:13:00
10:33 AM,12.2,5.0,73,30.18,10.0,North,9.2,18.4,N/A,,Mostly Cloudy,350,2012-12-31 16:33:00
10:52 AM,12.2,5.0,73,30.19,10.0,NNW,9.2,17.3,N/A,,Mostly Cloudy,340,2012-12-31 16:52:00
11:13 AM,12.2,5.0,73,30.18,7.0,North,8.1,-,N/A,,Overcast,350,2012-12-31 17:13:00
11:33 AM,12.2,5.0,73,30.18,7.0,NNW,10.4,16.1,N/A,,Overcast,340,2012-12-31 17:33:00
11:52 AM,12.2,5.0,73,30.18,10.0,North,9.2,-,N/A,,Overcast,350,2012-12-31 17:52:00
12:13 PM,12.2,5.0,73,30.17,10.0,NNW,11.5,16.1,N/A,,Overcast,340,2012-12-31 18:13:00
12:32 PM,12.2,5.0,73,30.17,10.0,NNW,11.5,23.0,N/A,,Mostly Cloudy,340,2012-12-31 18:32:00
12:53 PM,12.2,5.0,73,30.15,10.0,NNW,11.5,17.3,N/A,,Scattered Clouds,340,2012-12-31 18:53:00
1:13 PM,12.2,5.0,73,30.15,10.0,North,10.4,16.1,N/A,,Scattered Clouds,350,2012-12-31 19:13:00
1:32 PM,12.2,3.2,67,30.15,10.0,NNW,12.7,20.7,N/A,,Clear,340,2012-12-31 19:32:00
1:53 PM,12.2,3.2,67,30.15,10.0,NNW,11.5,-,N/A,,Clear,330,2012-12-31 19:53:00
2:13 PM,12.2,3.2,67,30.16,10.0,NNW,9.2,-,N/A,,Clear,340,2012-12-31 20:13:00
2:32 PM,12.2,3.2,67,30.17,10.0,NNW,13.8,-,N/A,,Clear,330,2012-12-31 20:32:00
2:53 PM,10.4,3.2,73,30.16,10.0,NNW,10.4,16.1,N/A,,Clear,330,2012-12-31 20:53:00
3:13 PM,10.4,1.4,67,30.16,10.0,NNW,10.4,-,N/A,,Clear,340,2012-12-31 21:13:00
3:33 PM,10.4,1.4,67,30.16,10.0,NNW,12.7,18.4,N/A,,Clear,330,2012-12-31 21:33:00
3:53 PM,10.4,1.4,67,30.16,10.0,NNW,12.7,-,N/A,,Clear,330,2012-12-31 21:53:00
4:13 PM,8.6,1.4,73,30.16,10.0,NNW,11.5,-,N/A,,Clear,330,2012-12-31 22:13:00
4:33 PM,8.6,-0.4,67,30.16,10.0,NNW,11.5,-,N/A,,Clear,340,2012-12-31 22:33:00
4:53 PM,8.6,-0.4,67,30.17,10.0,NNW,10.4,-,N/A,,Clear,340,2012-12-31 22:53:00
5:13 PM,6.8,-2.2,67,30.17,10.0,NNW,12.7,-,N/A,,Clear,330,2012-12-31 23:13:00
5:33 PM,5.0,-2.2,72,30.17,10.0,NNW,11.5,-,N/A,,Clear,330,2012-12-31 23:33:00
5:53 PM,5.0,-4.0,66,30.17,10.0,NNW,9.2,-,N/A,,Clear,330,2012-12-31 23:53:00
5:59 PM,5.0,-4.0,66,30.17,10.0,NNW,9.2,-,N/A,,Clear,340,2012-12-31 23:59:00
6:33 PM,3.2,-4.0,72,30.18,10.0,NNW,11.5,-,N/A,,Clear,330,2013-01-01 00:33:00
6:53 PM,3.2,-4.0,72,30.19,10.0,NW,10.4,-,N/A,,Clear,320,2013-01-01 00:53:00
7:13 PM,1.4,-5.8,72,30.19,10.0,NNW,9.2,-,N/A,,Clear,330,2013-01-01 01:13:00
7:33 PM,1.4,-5.8,72,30.19,10.0,NNW,11.5,-,N/A,,Clear,330,2013-01-01 01:33:00
7:53 PM,3.2,-5.8,66,30.19,10.0,NNW,11.5,-,N/A,,Clear,330,2013-01-01 01:53:00
8:33 PM,1.4,-5.8,72,30.19,10.0,NW,9.2,-,N/A,,Clear,320,2013-01-01 02:33:00
8:53 PM,1.4,-5.8,72,30.19,10.0,NW,8.1,-,N/A,,Clear,320,2013-01-01 02:53:00
9:13 PM,-0.4,-5.8,78,30.19,10.0,NW,5.8,-,N/A,,Clear,310,2013-01-01 03:13:00
9:33 PM,-0.4,-7.6,72,30.19,10.0,WNW,3.5,-,N/A,,Clear,300,2013-01-01 03:33:00
9:53 PM,-0.4,-5.8,78,30.20,10.0,NNW,5.8,-,N/A,,Clear,330,2013-01-01 03:53:00
10:13 PM,-0.4,-7.6,72,30.20,10.0,NNW,3.5,-,N/A,,Clear,340,2013-01-01 04:13:00
10:33 PM,-2.2,-7.6,78,30.21,10.0,NNW,6.9,-,N/A,,Clear,330,2013-01-01 04:33:00
11:13 PM,-0.4,-7.6,72,30.22,10.0,Calm,Calm,-,N/A,,Clear,0,2013-01-01 05:13:00
11:33 PM,-0.4,-7.6,72,30.23,10.0,Calm,Calm,-,N/A,,Clear,0,2013-01-01 05:33:00
11:53 PM,-2.2,-7.6,78,30.22,10.0,NW,3.5,-,N/A,,Clear,310,2013-01-01 05:53:00